• In Italy
  • List of Countries
  • For 7 days
  • Water Temperature
  • Satellite Maps
  • Weather Map
  • Weather Widgets
  • user-avatar
    Login

    Hourly Weather Delhi

    Today, 24 September, Sunday

    Time Temperature Precipitation Wind Pressure Humidity
    00:00 +25°C° 0 mm 1 mps 735 mmHg 91%
    01:00 +25°C° 0 mm 2 mps 735 mmHg 91%
    02:00 +25°C° 0 mm 2 mps 735 mmHg 91%
    03:00 +25°C° 0 mm 2 mps 735 mmHg 91%
    04:00 +25°C° 0 mm 2 mps 735 mmHg 92%
    05:00 +25°C° 0 mm 2 mps 735 mmHg 92%
    06:00 +26°C° 0 mm 2 mps 736 mmHg 88%
    07:00 +27°C° 0 mm 2 mps 736 mmHg 84%
    08:00 +28°C° 0 mm 2 mps 736 mmHg 80%
    09:00 +29°C° 0 mm 2 mps 736 mmHg 73%
    10:00 +31°C° 0 mm 2 mps 737 mmHg 66%
    11:00 +34°C° 0 mm 2 mps 737 mmHg 59%
    12:00 +34°C° 0 mm 2 mps 736 mmHg 55%
    13:00 +35°C° 0 mm 2 mps 736 mmHg 51%
    14:00 +36°C° 0 mm 3 mps 735 mmHg 47%
    15:00 +36°C° 0 mm 2 mps 735 mmHg 49%
    16:00 +35°C° 0 mm 2 mps 734 mmHg 51%
    17:00 +35°C° 0 mm 2 mps 734 mmHg 53%
    18:00 +32°C° 0 mm 2 mps 734 mmHg 57%
    19:00 +31°C° 0 mm 2 mps 734 mmHg 61%
    20:00 +30°C° 0 mm 1 mps 734 mmHg 66%
    21:00 +30°C° 0 mm 1 mps 734 mmHg 67%
    22:00 +29°C° 0 mm 1 mps 734 mmHg 69%
    23:00 +29°C° 0 mm 1 mps 734 mmHg 70%

    Tomorrow, 25 September, Monday

    Time Temperature Precipitation Wind Pressure Humidity
    00:00 +29°C° 0 mm 1 mps 734 mmHg 70%
    01:00 +29°C° 0 mm 1 mps 734 mmHg 70%
    02:00 +28°C° 0 mm 1 mps 733 mmHg 69%
    03:00 +28°C° 0 mm 1 mps 733 mmHg 68%
    04:00 +28°C° 0 mm 1 mps 733 mmHg 67%
    05:00 +28°C° 0 mm 1 mps 733 mmHg 65%
    06:00 +29°C° 0 mm 1 mps 734 mmHg 60%
    07:00 +30°C° 0 mm 2 mps 734 mmHg 54%
    08:00 +32°C° 0 mm 2 mps 735 mmHg 49%
    09:00 +35°C° 0 mm 2 mps 735 mmHg 42%
    10:00 +36°C° 0 mm 3 mps 735 mmHg 36%
    11:00 +38°C° 0 mm 3 mps 735 mmHg 29%
    12:00 +39°C° 0 mm 3 mps 734 mmHg 27%
    13:00 +41°C° 0 mm 4 mps 733 mmHg 25%
    14:00 +42°C° 0 mm 4 mps 733 mmHg 23%
    15:00 +40°C° 0 mm 3 mps 732 mmHg 26%
    16:00 +39°C° 0 mm 3 mps 732 mmHg 29%
    17:00 +38°C° 0 mm 2 mps 732 mmHg 32%
    18:00 +36°C° 0 mm 2 mps 732 mmHg 36%
    19:00 +35°C° 0 mm 2 mps 732 mmHg 40%
    20:00 +32°C° 0 mm 2 mps 733 mmHg 45%
    21:00 +32°C° 0 mm 2 mps 733 mmHg 46%
    22:00 +31°C° 0 mm 1 mps 733 mmHg 48%
    23:00 +31°C° 0 mm 1 mps 733 mmHg 49%

    Day after tomorrow, 26 September, Tuesday

    Time Temperature Precipitation Wind Pressure Humidity
    00:00 +31°C° 0 mm 1 mps 733 mmHg 49%
    01:00 +30°C° 0 mm 2 mps 733 mmHg 49%
    02:00 +30°C° 0 mm 2 mps 733 mmHg 48%
    03:00 +30°C° 0 mm 2 mps 733 mmHg 47%
    04:00 +30°C° 0 mm 2 mps 733 mmHg 45%
    05:00 +29°C° 0 mm 3 mps 733 mmHg 44%
    06:00 +30°C° 0 mm 3 mps 734 mmHg 43%
    07:00 +31°C° 0 mm 3 mps 734 mmHg 43%
    08:00 +33°C° 0 mm 3 mps 735 mmHg 43%
    09:00 +35°C° 0 mm 3 mps 735 mmHg 38%
    10:00 +36°C° 0 mm 4 mps 735 mmHg 34%
    11:00 +38°C° 0 mm 4 mps 735 mmHg 30%
    12:00 +40°C° 0 mm 4 mps 735 mmHg 28%
    13:00 +41°C° 0 mm 4 mps 734 mmHg 26%
    14:00 +41°C° 0 mm 4 mps 733 mmHg 24%
    15:00 +39°C° 0 mm 3 mps 733 mmHg 27%
    16:00 +38°C° 0 mm 3 mps 733 mmHg 30%
    17:00 +37°C° 0 mm 2 mps 733 mmHg 34%
    18:00 +36°C° 0 mm 2 mps 733 mmHg 38%
    19:00 +35°C° 0 mm 2 mps 733 mmHg 41%
    20:00 +32°C° 0 mm 1 mps 734 mmHg 45%
    21:00 +32°C° 0 mm 1 mps 734 mmHg 47%
    22:00 +31°C° 0 mm 1 mps 734 mmHg 48%
    23:00 +31°C° 0 mm 1 mps 734 mmHg 50%

    27 September, Wednesday

    Time Temperature Precipitation Wind Pressure Humidity
    00:00 +31°C° 0 mm 1 mps 734 mmHg 50%
    01:00 +30°C° 0 mm 1 mps 734 mmHg 50%
    02:00 +30°C° 0 mm 1 mps 733 mmHg 50%
    03:00 +30°C° 0 mm 1 mps 734 mmHg 49%
    04:00 +29°C° 0 mm 1 mps 734 mmHg 49%
    05:00 +29°C° 0 mm 1 mps 734 mmHg 48%
    06:00 +30°C° 0 mm 2 mps 734 mmHg 47%
    07:00 +31°C° 0 mm 2 mps 735 mmHg 45%
    08:00 +32°C° 0 mm 2 mps 735 mmHg 44%
    09:00 +34°C° 0 mm 2 mps 735 mmHg 40%
    10:00 +36°C° 0 mm 3 mps 735 mmHg 36%
    11:00 +38°C° 0 mm 3 mps 735 mmHg 31%
    12:00 +39°C° 0 mm 3 mps 735 mmHg 28%
    13:00 +40°C° 0 mm 3 mps 734 mmHg 25%
    14:00 +42°C° 0 mm 4 mps 733 mmHg 23%
    15:00 +40°C° 0 mm 3 mps 733 mmHg 25%
    16:00 +39°C° 0 mm 3 mps 733 mmHg 28%
    17:00 +38°C° 0 mm 2 mps 732 mmHg 31%
    18:00 +36°C° 0 mm 2 mps 733 mmHg 34%
    19:00 +35°C° 0 mm 2 mps 733 mmHg 37%
    20:00 +32°C° 0 mm 1 mps 733 mmHg 40%
    21:00 +32°C° 0 mm 1 mps 733 mmHg 42%
    22:00 +31°C° 0 mm 1 mps 733 mmHg 44%
    23:00 +31°C° 0 mm 1 mps 734 mmHg 45%

    28 September, Thursday

    Time Temperature Precipitation Wind Pressure Humidity
    00:00 +30°C° 0 mm 1 mps 733 mmHg 46%
    01:00 +30°C° 0 mm 1 mps 733 mmHg 47%
    02:00 +30°C° 0 mm 1 mps 733 mmHg 48%
    03:00 +29°C° 0 mm 1 mps 733 mmHg 48%
    04:00 +29°C° 0 mm 1 mps 733 mmHg 48%
    05:00 +29°C° 0 mm 1 mps 733 mmHg 49%
    06:00 +29°C° 0 mm 1 mps 734 mmHg 48%
    07:00 +30°C° 0 mm 2 mps 734 mmHg 47%
    08:00 +31°C° 0 mm 2 mps 735 mmHg 46%
    09:00 +34°C° 0 mm 2 mps 735 mmHg 41%
    10:00 +36°C° 0 mm 2 mps 735 mmHg 36%
    11:00 +38°C° 0 mm 2 mps 735 mmHg 31%
    12:00 +39°C° 0 mm 2 mps 734 mmHg 29%
    13:00 +39°C° 0 mm 2 mps 734 mmHg 26%
    14:00 +40°C° 0 mm 2 mps 733 mmHg 23%
    15:00 +39°C° 0 mm 2 mps 733 mmHg 25%
    16:00 +38°C° 0 mm 2 mps 733 mmHg 28%
    17:00 +37°C° 0 mm 2 mps 732 mmHg 30%
    18:00 +36°C° 0 mm 2 mps 733 mmHg 33%
    19:00 +35°C° 0 mm 2 mps 733 mmHg 36%
    20:00 +34°C° 0 mm 2 mps 733 mmHg 39%
    21:00 +32°C° 0 mm 2 mps 734 mmHg 41%
    22:00 +31°C° 0 mm 2 mps 734 mmHg 42%
    23:00 +31°C° 0 mm 2 mps 734 mmHg 44%

    29 September, Friday

    Time Temperature Precipitation Wind Pressure Humidity
    00:00 +30°C° 0 mm 1 mps 733 mmHg 45%
    01:00 +30°C° 0 mm 1 mps 733 mmHg 47%
    02:00 +30°C° 0 mm 1 mps 733 mmHg 48%
    03:00 +29°C° 0 mm 1 mps 733 mmHg 49%
    04:00 +29°C° 0 mm 1 mps 733 mmHg 49%
    05:00 +29°C° 0 mm 1 mps 733 mmHg 50%
    06:00 +30°C° 0 mm 1 mps 734 mmHg 48%
    07:00 +31°C° 0 mm 1 mps 734 mmHg 46%
    08:00 +32°C° 0 mm 1 mps 735 mmHg 44%
    09:00 +33°C° 0 mm 1 mps 735 mmHg 39%
    10:00 +35°C° 0 mm 1 mps 735 mmHg 34%
    11:00 +38°C° 0 mm 2 mps 734 mmHg 29%
    12:00 +39°C° 0 mm 2 mps 734 mmHg 27%
    13:00 +40°C° 0 mm 2 mps 733 mmHg 24%
    14:00 +41°C° 0 mm 2 mps 732 mmHg 22%
    15:00 +40°C° 0 mm 2 mps 732 mmHg 24%
    16:00 +39°C° 0 mm 2 mps 732 mmHg 26%
    17:00 +38°C° 0 mm 2 mps 732 mmHg 28%
    18:00 +37°C° 0 mm 2 mps 732 mmHg 31%
    19:00 +35°C° 0 mm 2 mps 733 mmHg 35%
    20:00 +34°C° 0 mm 2 mps 733 mmHg 38%
    21:00 +32°C° 0 mm 2 mps 733 mmHg 40%
    22:00 +32°C° 0 mm 2 mps 733 mmHg 41%
    23:00 +31°C° 0 mm 2 mps 734 mmHg 43%
    Show more